Location: Gleizolles
(44.4833°N, 6.7667°E)
Time: 16:41:36
(UTC+00:00)

Transit 2A - Pass Details

Date: 01 July 2024
Orbit: 591 x 960 km, 66.7° (Epoch: 16 July)

Event Time Altitude Azimuth Distance (km) Brightness Sun altitude
Rises 20:26:57 0° 330° (NNW) 3,544 11.3 -9.8°
Reaches altitude 10° 20:29:31 10° 335° (NNW) 2,636 10.1 -10.1°
Maximum altitude 20:35:35 52° 52° (NE) 1,174 6.9 -10.8°
Enters shadow 20:40:58 14° 126° (SE) 2,413 7.9 -11.4°
